Torrington, WY

10:50 PM MDT on September 28, 2016 (GMT -0600)
Torrington Municipal

Weather History for KTOR - March, 2014

Change the Weather History Date:

Monday, March 24, 2014

  Actual Average Record
Temperature  
Mean Temperature 35 °F 40 °F  
Max Temperature 43 °F 54 °F 75 °F (2004)
Min Temperature 26 °F 26 °F 8 °F (2013)
Degree Days  
Heating Degree Days 30 25  
Month to date heating degree days 698 672  
Since 1 July heating degree days 5813 5516  
Cooling Degree Days 0 0  
Month to date cooling degree days 0 0  
Year to date cooling degree days 0 0  
Moisture  
Dew Point 22 °F    
Average Humidity 68    
Maximum Humidity 92    
Minimum Humidity 43    
Precipitation  
Precipitation T in 0.03 in 0.52 in (2007)
Month to date precipitation 0.43 0.49  
Year to date precipitation 1.36 1.09  
Sea Level Pressure  
Sea Level Pressure 30.28 in    
Wind  
Wind Speed 10 mph (NNW)    
Max Wind Speed 24 mph    
Max Gust Speed 28 mph    
Visibility 9 miles    
Events Snow    
T = Trace of Precipitation, MM = Missing Value Source: NWS Daily Summary

Daily Weather History Graph

Daily Weather History Graph

Search for Another Location

Airport or City:

Trip Planner

Search our weather history database for the weather conditions in past years. The results will help you decide how hot, cold, wet, or windy it might be!

Date:

Astronomy

Mar. 24, 2014 Rise Set
Actual Time 6:52 AM MDT 7:13 PM MDT
Civil Twilight 6:24 AM MDT 7:41 PM MDT
Nautical Twilight 5:52 AM MDT 8:14 PM MDT
Astronomical Twilight 5:18 AM MDT 8:48 PM MDT
Moon 2:30 AM MDT (3/24) 12:35 PM MDT (3/24)
Length of Visible Light 13h 16m
Length of Day
12h 20m
Last Quarter, 42% of the Moon is Illuminated
Mar 24
Last Quarter
Mar 30
New
Apr 7
First Quarter
Apr 15
Full
Apr 22
Last Quarter

Hourly Weather History & Observations

Time (MDT) Temp. Windchill Dew Point Humidity Pressure Visibility Wind Dir Wind Speed Gust Speed Precip Events Conditions
12:53 AM 30.9 °F 22.2 °F 21.9 °F 69% 30.26 in 10.0 mi North 10.4 mph - N/A   Overcast
1:53 AM 30.0 °F 25.2 °F 23.0 °F 75% 30.24 in 10.0 mi North 4.6 mph - N/A   Overcast
2:53 AM 28.0 °F 20.0 °F 23.0 °F 81% 30.23 in 5.0 mi WNW 8.1 mph - 0.00 in Snow Light Snow
3:13 AM 27.0 °F 18.7 °F 23.0 °F 85% 30.18 in 2.5 mi West 8.1 mph - 0.00 in Snow Light Snow
3:26 AM 27.0 °F 20.5 °F 24.1 °F 89% 30.18 in 4.0 mi West 5.8 mph - 0.00 in Snow Light Snow
3:53 AM 27.0 °F 19.5 °F 24.1 °F 89% 30.23 in 10.0 mi West 6.9 mph - 0.00 in   Overcast
4:53 AM 27.0 °F 21.6 °F 24.1 °F 89% 30.23 in 10.0 mi WNW 4.6 mph - N/A   Overcast
5:53 AM 28.0 °F 22.8 °F 25.0 °F 88% 30.24 in 10.0 mi West 4.6 mph - N/A   Overcast
6:53 AM 27.0 °F 19.5 °F 24.1 °F 89% 30.28 in 10.0 mi West 6.9 mph - N/A   Overcast
7:53 AM 28.0 °F 24.2 °F 24.1 °F 85% 30.32 in 10.0 mi NW 3.5 mph - N/A   Overcast
8:53 AM 30.0 °F 21.7 °F 24.1 °F 79% 30.34 in 10.0 mi NNW 9.2 mph - N/A   Overcast
9:53 AM 33.1 °F 26.1 °F 21.9 °F 64% 30.33 in 10.0 mi North 8.1 mph - N/A   Partly Cloudy
10:53 AM 35.1 °F 29.3 °F 21.9 °F 59% 30.32 in 10.0 mi WNW 6.9 mph - N/A   Scattered Clouds
11:53 AM 36.0 °F - 19.9 °F 52% 30.31 in 10.0 mi North - - N/A   Scattered Clouds
12:53 PM 37.9 °F 31.5 °F 19.0 °F 47% 30.29 in 10.0 mi NNW 9.2 mph - N/A   Overcast
1:53 PM 39.9 °F 32.5 °F 21.0 °F 47% 30.26 in 10.0 mi NW 12.7 mph 21.9 mph N/A   Mostly Cloudy
2:53 PM 43.0 °F 36.0 °F 21.0 °F 42% 30.23 in 10.0 mi WNW 13.8 mph - N/A   Overcast
3:53 PM 41.0 °F 31.1 °F 24.1 °F 51% 30.24 in 10.0 mi North 23.0 mph 27.6 mph N/A   Overcast
4:53 PM 39.0 °F 29.6 °F 24.1 °F 55% 30.25 in 10.0 mi North 18.4 mph 24.2 mph N/A   Scattered Clouds
5:53 PM 37.9 °F 28.2 °F 23.0 °F 55% 30.26 in 10.0 mi North 18.4 mph - N/A   Clear
6:53 PM 33.1 °F 21.9 °F 24.1 °F 70% 30.27 in 10.0 mi NNE 18.4 mph - N/A   Clear
7:53 PM 30.0 °F 19.5 °F 21.9 °F 72% 30.30 in 10.0 mi NNE 13.8 mph - N/A   Clear
8:53 PM 30.0 °F 20.0 °F 19.0 °F 64% 30.33 in 10.0 mi NNE 12.7 mph - N/A   Mostly Cloudy
9:53 PM 30.0 °F 24.1 °F 18.0 °F 61% 30.36 in 10.0 mi NNW 5.8 mph - N/A   Overcast
10:53 PM 28.9 °F 22.8 °F 19.0 °F 67% 30.39 in 10.0 mi Variable 5.8 mph - N/A   Overcast
11:53 PM 27.0 °F 16.1 °F 19.0 °F 72% 30.40 in 10.0 mi North 12.7 mph - N/A   Overcast